Wind_Speed
17 14 12 16 25 36 43 45 47 47 46 40 36 28 26 20 16 13 16 12 12 10 12 15 14 16 11 8 6 8 10 6 7 7 5 4 8 8 9 16 19 20 17
23 17 15 17 19 31 41 47 47 46 46 41 37 31 23 22 16 15 13 14 12 10 11 13 15 12 6 7 6 7 8 6 5 4 7 9 11 8 11 16 19 19 18
28 25 21 20 21 25 42 46 44 49 46 43 40 30 23 19 19 20 15 13 12 9 12 13 11 5 6 5 6 5 6 8 6 7 8 10 13 14 16 17 22 18 18
27 27 26 22 24 26 38 49 45 47 48 42 41 36 29 28 23 24 17 15 13 12 15 13 11 12 10 9 9 7 8 11 8 9 7 9 11 15 18 21 23 23 20
29 30 27 27 27 27 31 44 48 46 45 47 44 38 29 34 28 26 20 20 14 13 16 12 13 13 13 11 10 11 11 8 8 7 9 12 15 18 22 22 22 25 24
37 32 34 27 25 31 30 42 50 49 48 44 44 39 37 35 34 28 25 20 15 16 14 13 15 18 17 16 9 13 13 11 8 10 14 20 19 24 26 23 24 28 25
31 40 38 33 29 32 30 37 49 54 47 45 51 41 39 39 37 29 23 20 18 28 23 17 21 18 18 16 19 17 18 15 13 15 17 22 22 25 24 24 27 30 29
34 34 40 39 35 31 33 36 44 53 49 49 52 44 36 38 38 34 32 22 22 30 26 20 20 23 22 22 23 22 22 23 24 25 24 25 21 22 25 24 30 32 30
35 36 40 39 42 35 35 36 43 43 44 50 49 45 38 38 41 39 36 35 27 31 28 25 20 20 21 27 26 27 28 26 27 29 32 26 22 26 27 29 31 35 34
23 34 36 42 45 41 37 36 43 45 44 46 45 46 41 42 40 42 39 38 34 31 29 26 23 22 22 25 28 31 33 30 33 33 32 28 27 27 31 34 32 35 35
23 22 31 40 41 45 39 38 43 46 44 47 42 43 42 44 41 40 40 38 37 35 34 33 28 26 22 26 27 30 31 33 35 30 27 31 30 33 36 38 35 36 38
27 24 27 35 39 40 42 43 42 48 50 47 46 44 44 46 44 44 43 40 37 36 34 33 34 32 26 31 25 25 30 32 30 30 31 34 38 39 37 38 37 38 39
24 22 16 31 35 34 38 46 43 47 49 51 48 45 43 44 44 45 44 42 41 37 32 34 40 41 32 29 27 26 25 25 28 34 37 36 36 36 35 36 39 41 46
22 18 12 18 31 33 33 44 46 44 46 51 51 49 47 47 47 46 44 43 43 40 39 40 43 43 36 35 33 31 31 31 29 34 38 38 38 41 41 40 45 47 49
21 20 14 16 22 28 28 39 46 47 46 46 51 49 49 47 47 47 45 44 43 44 46 47 46 45 39 37 37 35 36 38 37 39 43 45 49 48 47 51 53 55 57
18 20 18 13 16 25 23 31 43 47 47 46 45 47 47 43 45 44 43 44 45 47 47 48 48 49 45 42 41 41 43 45 47 48 51 54 55 56 56 60 61 63 65
16 16 18 16 12 16 25 22 33 43 45 46 46 45 47 44 44 45 44 46 46 48 50 52 54 52 47 46 46 47 49 51 53 54 56 59 61 62 64 65 67 67 67
16 13 14 13 9 10 14 23 24 36 46 46 48 43 43 45 44 44 46 48 51 51 51 50 55 54 51 51 54 56 55 57 58 59 62 63 66 68 69 70 72 74 74
15 15 14 11 8 8 7 10 19 25 36 44 47 44 45 47 47 47 46 45 47 50 52 52 54 56 58 60 62 64 65 67 69 70 71 72 72 73 75 76 77 77 72
11 11 14 13 10 9 8 8 11 19 28 36 44 45 45 50 50 52 51 53 53 53 53 56 59 63 65 68 71 72 73 74 76 77 75 75 75 77 76 76 73 72 77
12 11 14 12 10 12 12 12 11 13 20 30 37 43 46 48 51 55 56 57 57 58 61 63 65 66 68 70 72 74 75 77 78 78 78 80 80 79 81 79 79 81 83
15 17 17 18 19 18 17 17 16 15 16 22 33 41 45 47 51 55 58 59 61 64 66 69 70 72 75 77 77 78 80 84 86 86 86 87 86 84 85 83 86 88 89
26 27 26 26 20 21 22 24 22 21 21 23 25 30 37 45 50 55 59 62 64 68 71 73 75 77 79 81 82 83 84 84 83 85 83 83 85 89 90 91 93 94 90
30 31 29 26 26 26 25 25 25 25 26 28 29 31 35 39 43 47 53 57 61 65 69 72 76 79 81 81 81 82 81 81 81 87 87 88 90 95 96 96 94 94 94
24 27 27 27 28 28 31 32 33 33 33 34 35 36 39 42 45 49 53 55 58 62 66 68 71 73 76 79 80 83 85 86 87 89 92 93 94 96 97 99 103 105 103
28 28 28 31 33 34 33 34 33 35 37 39 40 42 44 47 51 54 58 60 64 68 72 74 78 80 82 84 85 86 88 89 92 93 94 95 97 99 100 99 101 102 102
Wind_Direction
272 274 273 252 233 222 216 217 219 216 216 216 215 214 231 226 219 215 216 232 259 287 253 297 305 311 302 285 254 259 272 243 291 337 329 327 357 350 354 348 347 341 351
269 268 261 261 242 223 218 217 219 218 219 214 210 218 223 218 219 212 220 231 244 276 279 285 304 313 299 294 273 255 265 231 262 284 316 295 311 319 320 326 333 334 330
265 258 252 252 255 232 215 218 221 221 216 213 212 213 209 222 223 219 221 240 243 262 292 290 289 291 287 281 292 271 247 239 249 258 282 299 302 315 325 319 330 327 327
272 262 258 251 254 249 219 218 222 221 219 216 213 207 210 210 233 233 221 237 258 260 275 282 275 262 255 268 294 302 301 276 247 253 285 312 305 315 315 322 319 320 318
263 268 261 256 245 252 235 219 217 217 219 217 215 209 204 209 210 236 230 216 236 264 263 279 271 274 264 258 274 274 283 269 278 263 275 295 300 301 308 306 313 317 310
260 259 259 254 255 244 244 220 219 218 220 214 211 208 212 213 215 229 234 240 240 251 257 294 276 275 277 265 282 288 284 259 266 264 272 288 302 304 303 307 311 315 313
260 253 256 249 254 241 240 221 217 218 223 220 216 209 211 217 218 218 228 222 247 242 248 279 287 265 271 283 269 270 277 265 284 285 285 298 300 298 298 301 307 304 312
264 256 249 251 248 244 236 225 214 220 222 218 220 215 215 219 220 217 219 216 247 249 250 257 278 268 261 269 273 275 279 274 274 282 287 300 300 296 299 294 295 309 310
267 262 255 249 249 243 232 228 210 212 213 214 216 215 215 230 227 224 224 227 244 252 250 257 263 273 266 270 274 269 269 272 270 277 283 286 291 298 290 294 304 310 307
280 262 257 248 240 240 229 225 207 208 212 211 217 220 222 226 228 227 231 229 230 243 248 254 266 255 266 271 274 276 276 271 272 274 278 273 288 297 289 297 304 304 301
314 277 258 239 239 234 226 216 209 211 214 212 217 220 218 224 225 230 235 242 241 243 248 256 260 255 277 276 277 283 276 273 274 271 269 279 276 277 283 285 295 294 295
324 308 257 233 235 232 224 217 217 215 214 215 220 221 223 226 231 236 239 241 248 250 253 261 257 256 274 282 276 281 284 271 266 266 267 266 270 271 277 280 281 291 293
327 324 283 225 233 237 227 219 217 216 216 220 224 223 225 230 230 234 239 247 248 249 253 257 260 259 262 267 277 283 278 270 265 259 264 271 277 276 279 281 285 289 293
335 321 293 250 237 243 237 221 218 220 218 221 226 228 229 232 235 235 242 250 252 255 256 249 259 270 269 271 275 278 277 277 267 263 266 280 286 286 286 286 287 289 292
339 332 301 265 247 247 248 229 223 220 223 225 228 229 228 233 234 239 244 246 254 258 258 261 269 274 268 272 279 277 279 279 279 278 281 283 285 287 286 289 288 289 293
348 341 329 300 268 242 247 236 230 225 225 227 230 229 225 231 236 239 243 247 253 254 258 264 268 268 262 268 277 275 275 279 282 284 285 288 289 290 289 290 290 292 295
332 344 346 336 288 254 242 246 238 231 222 226 229 231 231 235 238 241 247 250 250 255 260 262 267 267 267 271 274 273 273 276 279 283 285 285 286 286 287 288 289 289 290
329 338 352 358 326 290 271 241 242 233 227 227 229 232 236 237 237 244 250 254 258 259 260 265 260 263 268 270 271 273 274 277 277 278 280 281 283 285 285 285 286 287 288
315 324 329 340 345 310 287 263 246 235 233 230 229 233 236 237 238 241 242 248 256 261 264 266 267 268 268 270 271 272 272 273 275 278 283 285 285 284 282 283 286 289 291
317 329 321 317 321 328 322 290 264 250 241 238 237 239 240 242 242 242 244 245 246 251 257 262 264 266 267 268 270 273 277 278 279 280 281 282 282 281 282 286 287 285 286
287 310 318 320 309 302 308 312 303 265 251 244 239 239 242 246 249 250 251 251 253 253 254 257 262 265 267 269 271 273 276 277 278 279 280 280 280 280 282 283 285 285 285
276 299 298 309 308 309 306 308 299 285 273 253 248 248 247 247 249 251 252 256 260 261 263 264 265 267 269 271 273 275 276 278 279 278 278 280 280 282 282 284 284 287 290
279 291 300 305 300 299 298 298 297 290 285 271 263 258 257 257 257 258 259 259 260 261 262 264 266 268 268 270 273 274 275 277 276 276 279 282 284 283 284 286 285 285 286
286 293 297 299 299 295 296 296 294 288 285 282 278 274 271 266 263 262 261 262 264 265 266 268 267 267 268 269 272 273 274 276 277 278 279 279 277 276 279 282 283 282 282
299 296 295 297 297 297 295 295 292 289 284 280 276 274 275 274 274 272 271 273 274 274 273 272 272 272 271 272 272 274 274 275 275 275 277 278 278 277 277 277 276 277 278
297 295 294 295 293 294 291 291 290 287 285 283 282 281 279 276 274 273 273 273 273 272 272 272 273 273 273 273 273 273 273 273 272 273 273 274 275 276 276 277 280 281 282
Height
10900 10900 10900 10900 10901 10905 10911 10920 10927 10933 10938 10945 10950 10953 10956 10958 10960 10962 10963 10964 10966 10966 10966 10968 10966 10965 10962 10962 10962 10961 10960 10960 10961 10961 10961 10960 10960 10958 10957 10955 10954 10952 10950
10899 10900 10899 10899 10900 10901 10906 10913 10922 10929 10934 10940 10945 10951 10952 10956 10959 10960 10961 10962 10963 10964 10965 10964 10964 10963 10962 10961 10960 10959 10957 10958 10958 10960 10959 10959 10958 10957 10956 10954 10952 10950 10949
10895 10897 10897 10899 10898 10898 10901 10907 10916 10924 10930 10935 10940 10945 10949 10953 10956 10956 10958 10960 10961 10961 10961 10961 10961 10961 10961 10959 10958 10958 10957 10956 10957 10957 10958 10958 10955 10955 10953 10952 10950 10948 10947
10890 10892 10892 10894 10895 10896 10897 10901 10909 10917 10925 10931 10936 10941 10946 10949 10953 10954 10954 10956 10959 10958 10959 10959 10958 10958 10958 10957 10957 10956 10957 10955 10956 10956 10956 10956 10955 10954 10952 10950 10948 10945 10944
10887 10886 10887 10888 10890 10892 10893 10896 10901 10910 10919 10926 10931 10936 10939 10944 10948 10949 10951 10953 10955 10956 10957 10957 10956 10956 10957 10955 10953 10954 10953 10954 10953 10953 10954 10953 10952 10951 10950 10948 10945 10943 10941
10880 10882 10881 10882 10884 10886 10888 10891 10897 10904 10912 10920 10924 10929 10934 10937 10942 10945 10948 10950 10952 10953 10953 10954 10954 10954 10954 10952 10952 10950 10950 10950 10949 10950 10949 10949 10947 10946 10946 10945 10942 10940 10939
10872 10874 10876 10876 10879 10882 10883 10886 10890 10896 10906 10914 10918 10922 10926 10932 10937 10940 10942 10945 10948 10948 10950 10950 10950 10950 10948 10948 10948 10948 10948 10948 10947 10947 10946 10944 10942 10942 10941 10941 10939 10937 10935
10865 10865 10866 10868 10871 10874 10878 10881 10885 10892 10900 10907 10912 10917 10924 10929 10933 10935 10938 10940 10943 10944 10946 10946 10946 10945 10945 10944 10944 10944 10944 10944 10944 10942 10941 10940 10939 10938 10937 10936 10934 10932 10931
10854 10855 10857 10859 10862 10867 10871 10874 10879 10886 10893 10901 10907 10912 10918 10923 10928 10931 10933 10935 10938 10940 10940 10942 10941 10941 10941 10940 10940 10939 10939 10938 10938 10938 10937 10936 10935 10933 10931 10929 10928 10926 10925
10846 10846 10848 10850 10854 10859 10865 10868 10874 10880 10888 10895 10901 10907 10913 10917 10922 10925 10928 10929 10930 10932 10934 10936 10936 10936 10936 10935 10933 10932 10931 10932 10931 10932 10932 10931 10929 10926 10924 10922 10921 10919 10917
10841 10839 10838 10841 10846 10852 10859 10863 10868 10875 10883 10890 10895 10901 10906 10912 10916 10919 10921 10924 10925 10926 10927 10929 10931 10930 10929 10929 10928 10926 10925 10925 10925 10926 10925 10924 10922 10920 10918 10916 10914 10913 10909
10836 10832 10829 10832 10840 10846 10852 10858 10862 10868 10876 10883 10888 10894 10899 10904 10909 10912 10915 10917 10919 10920 10921 10923 10924 10922 10923 10922 10921 10921 10920 10918 10919 10919 10918 10917 10914 10912 10911 10910 10907 10905 10902
10832 10828 10825 10829 10836 10841 10845 10852 10857 10862 10869 10877 10882 10888 10893 10897 10902 10905 10908 10910 10912 10913 10915 10916 10916 10916 10915 10915 10915 10915 10913 10910 10910 10909 10908 10908 10907 10907 10904 10903 10899 10896 10893
10834 10830 10828 10831 10834 10836 10840 10845 10852 10857 10863 10869 10876 10882 10886 10891 10895 10898 10901 10903 10904 10905 10907 10908 10908 10909 10909 10908 10906 10907 10906 10905 10903 10901 10899 10900 10900 10898 10896 10893 10889 10886 10883
10835 10830 10829 10829 10830 10832 10835 10840 10846 10853 10859 10865 10871 10876 10879 10883 10887 10890 10894 10895 10896 10897 10899 10900 10902 10900 10900 10899 10898 10897 10897 10896 10896 10895 10892 10891 10889 10888 10885 10882 10878 10875 10872
10835 10830 10829 10827 10827 10829 10832 10834 10839 10846 10853 10859 10864 10867 10872 10876 10880 10883 10886 10887 10888 10889 10891 10893 10892 10890 10889 10889 10887 10887 10887 10886 10885 10884 10881 10878 10875 10874 10872 10868 10864 10862 10859
10835 10832 10828 10823 10824 10825 10828 10830 10833 10840 10847 10852 10856 10860 10865 10869 10872 10875 10878 10879 10880 10881 10881 10882 10882 10880 10879 10877 10877 10877 10875 10875 10874 10872 10869 10866 10863 10858 10855 10852 10849 10847 10845
10834 10831 10828 10826 10824 10824 10825 10825 10828 10833 10840 10845 10850 10854 10858 10862 10865 10866 10867 10868 10870 10869 10871 10873 10871 10869 10868 10866 10865 10864 10863 10861 10859 10857 10854 10852 10848 10845 10840 10837 10835 10832 10830
10832 10830 10828 10827 10826 10824 10824 10824 10826 10828 10832 10838 10843 10847 10850 10852 10856 10858 10859 10860 10860 10859 10858 10858 10857 10856 10855 10852 10851 10849 10848 10846 10844 10841 10838 10834 10830 10827 10824 10822 10819 10814 10809
10829 10827 10827 10826 10825 10824 10823 10822 10822 10824 10827 10830 10834 10837 10839 10841 10845 10847 10848 10848 10849 10848 10848 10846 10845 10843 10841 10838 10836 10835 10832 10828 10826 10824 10822 10819 10816 10811 10805 10802 10799 10796 10793
10825 10825 10825 10825 10824 10823 10822 10822 10821 10821 10822 10824 10826 10828 10831 10833 10835 10837 10838 10839 10839 10838 10836 10834 10833 10831 10827 10824 10821 10817 10814 10811 10809 10807 10805 10801 10797 10794 10789 10785 10783 10778 10774
10822 10822 10821 10821 10820 10820 10820 10819 10819 10819 10819 10819 10820 10821 10822 10823 10824 10825 10826 10826 10826 10824 10822 10820 10818 10815 10812 10808 10805 10801 10797 10793 10792 10788 10786 10782 10777 10773 10767 10766 10761 10756 10751
10817 10817 10817 10816 10816 10815 10814 10813 10813 10813 10812 10813 10814 10814 10814 10814 10814 10814 10813 10813 10812 10809 10807 10804 10802 10799 10795 10792 10790 10785 10779 10776 10770 10764 10763 10760 10755 10747 10742 10739 10737 10734 10729
10811 10811 10810 10810 10810 10809 10808 10807 10807 10806 10805 10804 10804 10804 10804 10803 10802 10800 10798 10797 10796 10792 10789 10787 10783 10780 10775 10772 10769 10764 10760 10755 10752 10742 10740 10738 10734 10727 10725 10720 10713 10709 10707
10805 10805 10804 10804 10803 10802 10801 10799 10798 10796 10795 10794 10793 10792 10791 10789 10788 10786 10783 10781 10778 10774 10770 10768 10764 10760 10755 10751 10749 10743 10739 10734 10728 10723 10715 10713 10708 10702 10698 10692 10687 10685 10682
10800 10799 10798 10796 10796 10795 10793 10791 10789 10787 10784 10782 10780 10778 10777 10776 10773 10770 10767 10764 10761 10755 10751 10748 10742 10738 10733 10728 10725 10722 10716 10710 10704 10699 10692 10687 10681 10674 10669 10665 10659 10655 10652